Location: Boda
(47.1872°N, 9.5454°E)
Time: 18:24:16
(UTC+00:00)

Cosmos 1346 Rocket - Pass Details

Date: 14 May 2021
Orbit: 528 x 549 km, 81.2° (Epoch: 15 June)

Event Time Altitude Azimuth Distance (km) Brightness Sun altitude
Exits shadow 02:41:56 - 177° (S) 2,494 5.8 -9.8°
Reaches altitude 10° 02:43:43 10° 173° (S) 1,770 5.1 -9.6°
Maximum altitude 02:47:29 52° 97° (E) 667 3.5 -9.1°
Drops below altitude 10° 02:51:18 10° 21° (NNE) 1,788 6.5 -8.6°
Sets 02:53:30 0° 16° (NNE) 2,685 7.4 -8.4°
